GW1475 Weather Reports


Display with metric or nautical units.
time (UTC)temp
F
wind
direction
speed
MPH
gust
MPH
rain 1hr
in
rain 24hr
in
rain mn
in
humidity
%
barometer
mb
20260507155731 58 167 2.0 3.0 0.00 0.00 0.01 66 1008.8
20260507155123 58 258 4.0 4.0 0.00 0.00 0.01 67 1008.8
20260507154519 59 298 4.0 4.0 0.00 0.00 0.01 65 1008.8
20260507153911 59 142 1.0 1.0 0.00 0.00 0.01 65 1008.8
20260507153315 58 77 1.0 2.0 0.00 0.00 0.01 65 1008.8
20260507152750 58 7 1.0 2.0 0.00 0.00 0.01 66 1008.8
20260507151534 56 263 2.0 3.0 0.00 0.00 0.01 70 1008.8
20260507150347 56 304 4.0 6.0 0.00 0.00 0.01 74 1008.8
20260507145715 57 0 2.0 2.0 0.00 0.00 0.01 77 1009.1
20260507145111 56 254 2.0 2.0 0.00 0.00 0.01 77 1008.8
20260507144515 56 309 2.0 2.0 0.00 0.00 0.01 72 1009.1
20260507143939 57 317 2.0 3.0 0.00 0.00 0.01 79 1008.8
20260507143320 56 263 1.0 2.0 0.00 0.00 0.01 78 1008.8
20260507142123 55 304 1.0 1.0 0.00 0.00 0.01 85 1009.1
20260507141517 55 294 3.0 3.0 0.00 0.00 0.01 84 1009.1
20260507140926 54 298 2.0 2.0 0.00 0.00 0.01 85 1009.1
20260507140342 54 358 2.0 3.0 0.00 0.00 0.01 93 1009.1
20260507135143 53 246 2.0 2.0 0.00 0.00 0.01 98 1009.4
20260507134519 52 2 1.0 1.0 0.00 0.00 0.01 99 1009.1
20260507133319 52 245 1.0 1.0 0.00 0.00 0.01 99 1009.4
20260507132743 52 4 2.0 2.0 0.00 0.00 0.01 99 1009.4
20260507132122 52 129 1.0 1.0 0.00 0.00 0.01 99 1009.8
20260507130911 51 103 0.0 1.0 0.00 0.00 0.01 99 1009.4
20260507130311 52 115 0.0 0.0 0.00 0.00 0.01 99 1009.8
20260507124550 52 115 0.0 0.0 0.00 0.00 0.01 99 1009.4
20260507123943 52 116 0.0 0.0 0.00 0.00 0.01 99 1009.4
20260507123343 51 116 0.0 0.0 0.00 0.00 0.01 99 1009.4
20260507122748 51 116 0.0 0.0 0.00 0.00 0.01 99 1009.4
20260507122127 51 115 0.0 0.0 0.00 0.00 0.01 99 1009.4
20260507120340 51 104 0.0 0.0 0.00 0.00 0.01 99 1009.1
20260507115712 51 104 0.0 0.0 0.00 0.00 0.01 99 1009.4
20260507115146 51 104 0.0 0.0 0.00 0.00 0.01 99 1009.4
20260507114527 51 104 0.0 0.0 0.00 0.00 0.01 99 1009.1
20260507113916 51 104 0.0 0.0 0.00 0.00 0.01 99 1009.1
20260507113326 51 104 0.0 0.0 0.00 0.00 0.01 99 1009.4
20260507112752 51 105 0.0 0.0 0.00 0.00 0.01 99 1009.4
20260507111513 51 105 0.0 0.0 0.00 0.00 0.01 99 1009.4
20260507110940 50 105 0.0 0.0 0.00 0.00 0.01 99 1009.1
20260507110320 50 106 0.0 0.0 0.00 0.00 0.01 99 1008.8
20260507105718 50 106 0.0 0.0 0.00 0.00 0.01 99 1009.4
20260507105143 50 106 0.0 0.0 0.00 0.00 0.01 99 1008.8
20260507104546 51 106 0.0 0.0 0.00 0.00 0.01 99 1009.1
20260507103320 51 105 0.0 0.0 0.00 0.00 0.01 99 1009.1
20260507102729 51 105 0.0 0.0 0.00 0.00 0.01 99 1008.8
20260507101525 51 105 0.0 0.0 0.00 0.00 0.01 99 1008.8
20260507100912 51 105 0.0 0.0 0.00 0.00 0.01 99 1008.4
20260507100332 51 105 0.0 0.0 0.00 0.00 0.01 99 1008.4
20260507095740 50 105 0.0 0.0 0.00 0.00 0.01 99 1008.4
20260507095110 51 105 0.0 0.0 0.00 0.00 0.01 99 1008.1
20260507093930 51 107 0.0 0.0 0.00 0.00 0.01 99 1008.1
20260507093344 51 113 0.0 0.0 0.00 0.00 0.01 99 1008.8
20260507092744 51 159 0.0 0.0 0.00 0.00 0.01 99 1008.8
20260507092130 51 159 0.0 0.0 0.00 0.00 0.01 99 1008.8
20260507091510 51 158 0.0 0.0 0.00 0.00 0.01 99 1008.8
20260507090940 51 158 0.0 0.0 0.00 0.00 0.01 99 1008.8
20260507090318 51 158 0.0 0.0 0.00 0.00 0.01 99 1008.8
20260507085715 51 158 0.0 0.0 0.00 0.00 0.01 99 1008.8
20260507085109 51 158 0.0 0.0 0.00 0.00 0.01 99 1008.8
20260507084541 51 158 0.0 0.0 0.00 0.00 0.01 99 1008.8
20260507083925 51 160 0.0 0.0 0.00 0.00 0.01 99 1008.8
20260507083327 51 160 0.0 0.0 0.00 0.00 0.01 99 1008.4
20260507082121 51 92 0.0 0.0 0.00 0.00 0.01 99 1008.1
20260507081530 51 108 0.0 0.0 0.00 0.00 0.01 99 1008.1
20260507080917 51 107 0.0 0.0 0.00 0.00 0.01 99 1008.4
20260507080337 51 107 0.0 0.0 0.00 0.00 0.01 99 1008.4
20260507075716 51 108 0.0 0.0 0.00 0.00 0.01 99 1008.8
20260507075135 51 108 0.0 0.0 0.00 0.00 0.01 99 1008.4
20260507074541 51 107 0.0 0.0 0.00 0.00 0.01 99 1008.4
20260507073952 51 73 0.0 0.0 0.00 0.00 0.01 99 1008.8
20260507073328 51 147 0.0 0.0 0.00 0.00 0.01 99 1008.8
20260507072748 51 151 0.0 0.0 0.00 0.00 0.01 99 1008.8
20260507072116 51 151 0.0 0.0 0.00 0.00 0.01 99 1008.8
20260507071537 51 151 0.0 0.0 0.00 0.00 0.01 99 1008.8
20260507070310 51 111 0.0 0.0 0.00 0.00 0.01 99 1008.8
20260507065753 51 122 0.0 0.0 0.00 0.00 0.01 99 1008.8
20260507064514 51 146 0.0 0.0 0.00 0.00 0.01 99 1008.8
20260507063913 51 142 0.0 0.0 0.00 0.00 0.01 99 1008.8
20260507063347 51 135 0.0 0.0 0.00 0.00 0.01 99 1008.8
20260507062716 51 135 0.0 0.0 0.00 0.00 0.01 99 1008.8
20260507062130 51 135 0.0 0.0 0.00 0.00 0.01 99 1008.8
20260507061517 51 136 0.0 0.0 0.00 0.00 0.01 99 1008.8
20260507060928 52 154 0.0 0.0 0.00 0.00 0.01 99 1008.8
20260507060317 51 166 0.0 0.0 0.00 0.00 0.01 99 1009.1
20260507055734 51 129 0.0 0.0 0.00 0.00 0.01 99 1008.8
20260507055110 51 119 0.0 0.0 0.00 0.00 0.01 99 1009.1
20260507053926 52 116 0.0 0.0 0.00 0.00 0.01 99 1008.8
20260507052712 52 114 0.0 0.0 0.00 0.00 0.01 99 1009.1
20260507052147 52 116 0.0 0.0 0.00 0.00 0.01 99 1008.8
20260507051524 52 109 0.0 0.0 0.00 0.00 0.01 99 1008.8
20260507050911 52 111 0.0 1.0 0.00 0.00 0.01 99 1008.8
20260507050342 52 159 1.0 1.0 0.00 0.00 0.01 99 1009.1
20260507045750 53 335 5.0 7.0 0.00 0.00 0.00 99 1008.8
20260507045142 54 0 3.0 3.0 0.00 0.00 0.00 99 1008.8
20260507044539 54 255 1.0 2.0 0.00 0.00 0.00 99 1008.8
20260507043954 54 95 0.0 0.0 0.00 0.00 0.00 99 1008.8
20260507041541 54 124 0.0 0.0 0.00 0.00 0.00 99 1008.8
20260507040932 54 124 0.0 0.0 0.00 0.00 0.00 99 1008.8
20260507040332 54 134 0.0 0.0 0.00 0.00 0.00 99 1008.8
20260507035713 54 135 0.0 0.0 0.00 0.00 0.67 99 1008.8
20260507035145 54 136 0.0 0.0 0.00 0.00 0.67 99 1009.1
20260507034518 54 147 0.0 0.0 0.00 0.00 0.67 99 1008.8
20260507033911 54 160 0.0 0.0 0.00 0.00 0.67 99 1009.1
20260507033343 54 148 0.0 0.0 0.00 0.00 0.67 99 1008.4
20260507032121 54 148 0.0 0.0 0.00 0.00 0.67 99 1008.4
20260507030950 54 120 0.0 0.0 0.00 0.00 0.67 99 1008.4
20260507030351 54 102 0.0 0.0 0.00 0.00 0.67 99 1008.4
20260507025726 54 93 1.0 1.0 0.00 0.00 0.67 99 1008.1
20260507024540 54 120 0.0 0.0 0.00 0.00 0.67 99 1008.4
20260507023911 54 120 0.0 0.0 0.00 0.00 0.67 99 1008.8
20260507023354 54 120 0.0 0.0 0.00 0.00 0.67 99 1008.8
20260507022710 54 119 0.0 0.0 0.00 0.00 0.67 99 1008.8
20260507022117 55 53 1.0 1.0 0.00 0.00 0.67 99 1008.8
20260507021541 55 116 0.0 0.0 0.00 0.00 0.67 99 1008.4
20260507020939 55 20 1.0 1.0 0.00 0.00 0.67 99 1008.8
20260507020318 55 149 0.0 0.0 0.00 0.00 0.67 99 1008.4
20260507015728 55 122 3.0 3.0 0.00 0.00 0.67 99 1009.1
20260507015145 55 296 0.0 0.0 0.00 0.00 0.67 99 1009.8
20260507014513 55 184 0.0 0.0 0.00 0.00 0.67 99 1009.1
20260507013930 55 243 1.0 1.0 0.00 0.00 0.67 99 1008.4
20260507013354 54 143 0.0 0.0 0.00 0.00 0.67 99 1008.4
20260507012144 55 136 0.0 0.0 0.00 0.00 0.67 99 1008.8
20260507011532 55 107 0.0 0.0 0.00 0.00 0.67 99 1008.1
20260507010953 55 40 2.0 2.0 0.00 0.00 0.67 99 1007.4
20260507010329 55 149 0.0 0.0 0.00 0.00 0.67 99 1007.4
20260507005135 55 140 0.0 0.0 0.00 0.00 0.67 99 1007.7
20260507004543 55 139 1.0 1.0 0.00 0.00 0.67 99 1007.7
20260507003345 55 116 0.0 0.0 0.00 0.00 0.67 99 1008.1
20260507002728 55 205 1.0 1.0 0.00 0.00 0.67 99 1007.4
20260507001548 55 152 0.0 0.0 0.00 0.00 0.67 99 1006.7
20260507000314 55 148 0.0 0.0 0.00 0.00 0.67 99 1007.7
20260506235729 55 148 0.0 0.0 0.00 0.00 0.67 99 1007.7
20260506235133 55 109 0.0 0.0 0.00 0.00 0.67 99 1007.7
20260506234523 55 96 1.0 1.0 0.00 0.00 0.67 99 1007.7
20260506233939 55 204 0.0 1.0 0.00 0.00 0.67 99 1007.4
20260506233351 56 156 0.0 0.0 0.00 0.00 0.66 99 1007.1
20260506232743 56 148 0.0 0.0 0.00 0.00 0.66 99 1007.1
20260506232149 55 124 0.0 0.0 0.00 0.00 0.66 99 1007.1
20260506231525 55 124 0.0 0.0 0.00 0.00 0.66 99 1007.1
20260506230932 55 122 1.0 1.0 0.00 0.00 0.66 99 1007.4
20260506230329 55 127 0.0 1.0 0.00 0.00 0.66 99 1007.4
20260506225711 55 126 0.0 0.0 0.00 0.00 0.66 99 1007.7
20260506225110 55 124 0.0 1.0 0.00 0.00 0.66 99 1007.7
20260506224517 55 113 0.0 0.0 0.00 0.00 0.63 99 1007.7
20260506223932 55 113 0.0 1.0 0.00 0.00 0.63 99 1007.7
20260506223327 55 113 0.0 0.0 0.00 0.00 0.63 99 1008.1
20260506222722 55 113 0.0 0.0 0.00 0.00 0.62 99 1007.7
20260506222144 55 113 0.0 1.0 0.00 0.00 0.62 99 1007.4
20260506221515 55 113 0.0 0.0 0.00 0.00 0.62 99 1007.7
20260506220918 55 112 0.0 1.0 0.00 0.00 0.61 99 1007.4
20260506220343 55 113 0.0 0.0 0.00 0.00 0.60 99 1007.1
20260506215738 55 112 0.0 0.0 0.00 0.00 0.59 99 1007.1
20260506215141 56 112 0.0 1.0 0.00 0.00 0.55 99 1007.1
20260506214549 56 113 0.0 0.0 0.00 0.00 0.55 99 1007.4
20260506213317 56 131 0.0 0.0 0.00 0.00 0.55 99 1007.4
20260506212713 55 152 0.0 0.0 0.00 0.00 0.55 99 1007.1
20260506212127 55 158 2.0 2.0 0.00 0.00 0.54 99 1007.1
20260506210929 56 139 0.0 0.0 0.00 0.00 0.54 99 1007.1
20260506210347 55 124 0.0 1.0 0.00 0.00 0.54 99 1007.1
20260506204531 55 148 0.0 0.0 0.00 0.00 0.54 99 1007.4
20260506203311 55 157 0.0 0.0 0.00 0.00 0.54 99 1007.1
20260506202713 55 182 0.0 1.0 0.00 0.00 0.54 99 1007.1
20260506201533 55 71 1.0 1.0 0.00 0.00 0.54 99 1007.1
20260506200314 55 250 1.0 1.0 0.00 0.00 0.53 99 1007.4
20260506195752 55 148 1.0 1.0 0.00 0.00 0.53 99 1007.4
20260506194536 56 157 0.0 1.0 0.00 0.00 0.53 99 1007.1
20260506193953 56 115 0.0 1.0 0.00 0.00 0.53 99 1007.1
20260506193353 56 282 2.0 2.0 0.00 0.00 0.53 99 1007.1
20260506192743 56 267 2.0 2.0 0.00 0.00 0.53 99 1006.7
20260506192132 56 178 0.0 1.0 0.00 0.00 0.53 99 1006.7
20260506191543 56 190 0.0 1.0 0.00 0.00 0.53 99 1006.7
20260506190913 56 154 0.0 0.0 0.00 0.00 0.53 99 1006.7
20260506190340 56 147 0.0 0.0 0.00 0.00 0.53 99 1006.7
20260506185719 55 148 1.0 1.0 0.00 0.00 0.53 99 1006.4
20260506184536 56 214 1.0 1.0 0.00 0.00 0.53 99 1006.4
20260506183920 55 269 2.0 2.0 0.00 0.00 0.53 99 1006.7
20260506183330 56 112 0.0 1.0 0.00 0.00 0.53 99 1006.7
20260506182741 56 145 2.0 2.0 0.00 0.00 0.53 99 1006.7
20260506181541 56 148 0.0 0.0 0.00 0.00 0.53 99 1006.0
20260506180936 56 165 0.0 0.0 0.00 0.00 0.53 99 1006.7
20260506180354 56 173 1.0 1.0 0.00 0.00 0.53 99 1006.0
20260506175748 56 169 2.0 3.0 0.00 0.00 0.53 99 1006.4
20260506175127 56 159 0.0 1.0 0.00 0.00 0.53 99 1006.4
20260506174531 56 188 0.0 1.0 0.00 0.00 0.52 99 1006.4
20260506173943 56 185 2.0 2.0 0.00 0.00 0.52 99 1006.4
20260506173318 56 254 1.0 1.0 0.00 0.00 0.52 99 1006.0
20260506172712 56 124 2.0 2.0 0.00 0.00 0.52 99 1006.4
20260506172141 56 130 1.0 2.0 0.00 0.00 0.52 99 1006.7
20260506170953 56 6 3.0 3.0 0.00 0.00 0.50 99 1006.0
20260506170310 56 82 0.0 1.0 0.00 0.00 0.50 99 1006.0
20260506163946 57 302 3.0 4.0 0.00 0.00 0.50 99 1006.0
20260506163334 58 162 2.0 3.0 0.00 0.00 0.50 99 1006.0
20260506162749 59 159 2.0 4.0 0.00 0.00 0.49 99 1006.0
20260506162115 60 291 6.0 8.0 0.00 0.00 0.49 99 1005.7
20260506161546 63 326 6.0 7.0 0.00 0.00 0.47 99 1005.4
20260506160934 63 114 0.0 0.0 0.00 0.00 0.47 99 1005.0
20260506160351 63 114 1.0 1.0 0.00 0.00 0.47 99 1005.0